Flag for Canada Weather past 2 weeks in Summerside, Prince Edward Island, Canada

Now
63 °F

Mild.


Feels Like: 63 °F
Forecast: 62 / 77 °F
Wind: 8 mph from West

Location: Summerside Airport

Current Time: Aug 2, 2015 at 5:24:41 AM

Latest Report: Aug 2, 2015 at 5:00 AM


Visibility: N/A

Pressure: 29.68 "Hg

Humidity: 96%

Dew point: 62 °F

Location of SummersideLocation

Historic Weather in Summerside — Graph

°F

Summerside temperature yesterday

Maximum temperature yesterday: 80 °F (at 4:00 PM)
Minimum temperature yesterday: 62 °F (at 6:00 AM)
Average temperature yesterday: 70 °F

Past Weeks' High & Low Weather Summary

 TemperatureHumidityPressure
High80 °F (Aug 1, 4:00 PM)100% (Jul 20, 8:00 AM)30.11 "Hg (Jul 20, 8:00 AM)
Low53 °F (Jul 25, 6:00 AM)60% (Jul 18, 4:00 PM)29.53 "Hg (Jul 22, 8:00 PM)
Average64 °F92%29.84 "Hg
* Reported Jul 18 4:00 AM — Aug 2 4:00 AM, Summerside, Weather by CustomWeather, © 2015

Note: Actual official high and low records may vary slightly from our data, if they occured in-between our weather recording intervals... More about our weather records

Advertising

Summerside weather history for previous 24 hours

 ConditionsComfort  
Time TempWeatherWind HumidityBarometerVisibility
4:00 AM
Sun, Aug 2
62 °FMild.7 mph96%29.67 "HgN/A
3:00 AM63 °FMild.8 mph96%29.67 "HgN/A
2:00 AM62 °FCool.8 mph97%29.67 "HgN/A
1:00 AM63 °FMild.7 mph96%29.68 "HgN/A
12:00 AM62 °FCool.5 mph97%29.67 "HgN/A
11:00 PM
Sat, Aug 1
63 °FMild.5 mph96%29.67 "HgN/A
10:00 PM65 °FMild.8 mph92%29.66 "HgN/A
9:00 PM67 °FMild.9 mph90%29.68 "HgN/A
8:00 PM74 °FMild.14 mph80%29.65 "HgN/A
7:00 PM75 °FMild.17 mph78%29.64 "HgN/A
6:00 PM78 °FWarm.15 mph83%29.63 "HgN/A
5:00 PM79 °FWarm.15 mph82%29.64 "HgN/A
4:00 PM80 °FWarm.12 mph83%29.65 "HgN/A
3:00 PM80 °FWarm.10 mph84%29.67 "HgN/A
2:00 PM80 °FWarm.8 mph84%29.69 "HgN/A
1:00 PM77 °FWarm.9 mph89%29.71 "HgN/A
12:00 PM76 °FMild.9 mph91%29.71 "HgN/A
11:00 AM74 °FMild.9 mph90%29.70 "HgN/A
10:00 AM72 °FMild.7 mph95%29.70 "HgN/A
9:00 AM69 °FMild.7 mph96%29.71 "HgN/A
8:00 AM67 °FMild.7 mph99%29.71 "HgN/A
7:00 AM64 °FMild.5 mph100%29.69 "HgN/A
6:00 AM62 °FCool.5 mph93%29.68 "HgN/A
5:00 AM62 °FCool.6 mph99%29.67 "HgN/A
Weather by CustomWeather, © 2015

See weather overviewHow to use our weather pages